Find Starlink 11416

NORAD ID: 62594 Int'l Des: 2025-008 Owner: SPXS Country: US Constellation: starlink operational
LEOCIRCULAR

Live Position

Loading 3D Globe...

About Starlink 11416

Description loading...

Upcoming Passes

Passes for default location (London). Set your location on the main map for personalized predictions.

Altitude History

Loading altitude history...

Two-Line Element Set

1 62594U 25008H 26124.50002315 .00144172 00000-0 81589-3 0 9995
2 62594 42.9934 148.2392 0004135 79.1689 86.1785 15.77889193 5975
Epoch: May 4, 2026 • Age: 4 hours

Current Status

Altitude 334.8 km
Velocity 7.71 km/s
Sub-Earth Point 32.15°N, 85.61°E
Launch Date Jan 13, 2025
Age 1.3 years
Type internet

Technical Details

Classification Payload
Mass 960.00 kg
Dry Mass 910.00 kg
Total Mass 960.00 kg
Length 0.30 m
Diameter 4.10 m
Span 29.00 m
Shape Box + pan
Manufacturer SPXS
Bus Type Starlink V2MD
Phase Status In Orbit
Owner/State SPXS/US

Most Searched